Home > Weather > Güstrow > Past weeks

Flag for Germany Past Weather in Güstrow, Mecklenburg-Western Pomerania, Germany — Yesterday and Last 2 Weeks

Now
63 °F

Partly sunny.


Feels Like: 63 °F
Forecast: 53 / 67 °F
Wind: 2 mph from South

Location: Laage

Current Time: May 26, 2016 at 8:39:15 PM

Latest Report: May 26, 2016 at 7:20 PM


Visibility: N/A

Pressure: 30.01 "Hg

Humidity: 77%

Dew Point: 55 °F

Location of GüstrowLocation

Past Weather in Güstrow — Graph

°F

Güstrow Temperature Yesterday

Maximum temperature yesterday: 66 °F (at 3:20 PM)
Minimum temperature yesterday: 55 °F (at 4:20 AM)
Average temperature yesterday: 60 °F

High & Low Weather Summary for the Past Weeks

 TemperatureHumidityPressure
High82 °F (May 22, 3:20 PM)100% (May 15, 5:20 AM)30.04 "Hg (May 15, 5:20 AM)
Low39 °F (May 18, 5:20 AM)30% (May 12, 5:20 PM)29.56 "Hg (May 13, 8:20 PM)
Average57 °F74%29.84 "Hg
* Reported May 11 6:20 PM — May 26 6:20 PM, Güstrow, Weather by CustomWeather, © 2016

Note: Actual official high and low records may vary slightly from our data, if they occured in-between our weather recording intervals... More about our weather records

Advertising

Güstrow Weather History for the Previous 24 Hours

Scroll right to see more
 ConditionsComfort  
Time TempWeatherWind HumidityBarometerVisibility
6:20 PM
Thu, May 26
63 °FPartly sunny.3 mph73%30.01 "HgN/A
5:20 PM63 °FPartly sunny.1 mph73%30.01 "HgN/A
4:20 PM63 °FBroken clouds.3 mph73%30.01 "HgN/A
3:20 PM61 °FBroken clouds.3 mph77%30.01 "HgN/A
2:20 PM61 °FPartly sunny.3 mph77%30.04 "HgN/A
1:20 PM59 °FOvercast.5 mph77%30.01 "HgN/A
12:20 PM59 °FOvercast.6 mph77%30.01 "HgN/A
11:20 AM57 °FOvercast.5 mph82%30.01 "HgN/A
10:20 AM55 °FOvercast.7 mph88%30.01 "HgN/A
9:20 AM55 °FOvercast.6 mph88%30.01 "HgN/A
8:20 AM55 °FLow clouds.5 mph94%30.01 "HgN/A
7:20 AM54 °FLow clouds.2 mph100%29.98 "Hg4 mi
6:20 AM52 °FFog.6 mph100%29.98 "Hg3 mi
6:01 AM52 °FFog.5 mph100%29.98 "Hg3 mi
5:20 AM52 °FFog.6 mph100%29.98 "Hg1 mi
4:48 AM52 °FFog.5 mph100%29.98 "Hg1 mi
4:20 AM52 °FFog.7 mph100%29.98 "Hg0 mi
3:20 AM54 °FFog.7 mph100%29.98 "Hg0 mi
2:20 AM54 °FFog.3 mph100%29.98 "Hg0 mi
1:20 AM54 °FFog.2 mph100%29.98 "Hg0 mi
12:20 AM54 °FFog.No wind100%29.98 "Hg0 mi
11:20 PM
Wed, May 25
55 °FPassing clouds.2 mph94%29.95 "Hg4 mi
10:20 PM57 °FPassing clouds.5 mph94%29.95 "HgN/A
9:20 PM59 °FPassing clouds.6 mph88%29.95 "HgN/A
8:20 PM61 °FPassing clouds.8 mph83%29.95 "Hg6 mi
Weather by CustomWeather, © 2016

See weather overviewHow to use our weather pages